Location: Emory University Observatory
(33.7903°N, 84.3267°W)
Time: 20:09:00
(UTC-04:00)

Vanguard 1 Rocket - All Passes

Search period start: 16 October 2017 00:00
Search period end: 26 October 2017 00:00
Orbit: 655 x 4222 km, 34.3° (Epoch: 16 October)

Date Brightness Start Highest point End Pass type
(mag) Time Alt. Az. Time Alt. Az. Time Alt. Az.
16 Oct - 06:47:26 10° SSW 06:53:08 17° SSE 06:57:19 10° ESE visible
16 Oct - 09:12:26 10° SW 09:18:53 49° SSE 09:23:19 10° E daylight
16 Oct - 11:38:59 10° W 11:43:38 84° N 11:48:18 10° E daylight
16 Oct - 14:03:53 10° W 14:08:25 57° SSW 14:15:07 10° ESE daylight
16 Oct - 16:29:15 10° WSW 16:34:05 21° SSW 16:41:13 10° SSE daylight
17 Oct - 05:38:18 10° S 05:41:17 11° SSE 05:43:51 10° SE visible
17 Oct - 08:00:26 10° SW 08:07:57 35° SSE 08:12:45 10° E daylight
17 Oct - 10:27:29 10° WSW 10:32:59 85° SSE 10:37:22 10° E daylight
17 Oct - 12:53:20 10° W 12:57:43 79° SSW 13:03:09 10° ESE daylight
17 Oct - 15:18:09 10° W 15:22:44 29° SSW 15:29:42 10° SE daylight
18 Oct - 06:48:30 10° SSW 06:56:38 25° SSE 07:01:53 10° ESE visible
18 Oct - 09:15:24 10° WSW 09:22:17 65° SSE 09:26:50 10° E daylight
18 Oct - 11:42:23 10° W 11:47:05 85° N 11:51:42 10° E daylight
18 Oct - 14:07:27 10° W 14:11:47 42° SSW 14:17:59 10° SE daylight
18 Oct - 16:34:20 10° SW 16:37:36 14° SSW 16:41:42 10° S daylight
19 Oct - 05:37:07 10° SSW 05:44:49 18° SSE 05:50:13 10° ESE visible
19 Oct - 08:02:53 10° SW 08:11:22 47° SSE 08:16:25 10° E daylight
19 Oct - 10:30:49 10° W 10:36:25 86° N 10:40:48 10° E daylight
19 Oct - 12:56:47 10° W 13:01:07 63° SSW 13:06:22 10° ESE daylight
19 Oct - 15:22:16 10° WSW 15:26:11 20° SSW 15:31:32 10° SSE daylight
20 Oct - 04:27:36 10° S 04:32:28 12° SSE 04:36:29 10° SE visible
20 Oct - 06:50:13 10° SW 07:00:05 35° SSE 07:05:52 10° E visible
20 Oct - 09:18:30 10° WSW 09:25:40 79° SSE 09:30:19 10° E daylight
20 Oct - 11:45:47 10° W 11:50:32 87° S 11:55:07 10° E daylight
20 Oct - 14:11:10 10° W 14:15:11 30° SSW 14:20:35 10° SE daylight
21 Oct - 05:37:46 10° SSW 05:48:19 26° SSE 05:54:51 10° E visible
21 Oct - 08:05:36 10° WSW 08:14:45 61° SSE 08:20:00 10° E daylight
21 Oct - 10:34:09 10° W 10:39:52 84° N 10:44:16 10° E daylight
21 Oct - 13:00:16 10° W 13:04:30 47° SSW 13:09:28 10° SE daylight
21 Oct - 15:27:18 10° SW 15:29:38 12° SSW 15:32:22 10° S daylight
22 Oct - 04:26:08 10° S 04:36:00 19° SSE 04:42:49 10° ESE visible
22 Oct - 06:52:20 10° SW 07:03:29 46° SSE 07:09:36 10° E visible
22 Oct - 09:21:43 10° W 09:29:05 89° S 09:33:47 10° E daylight
22 Oct - 11:49:11 10° W 11:53:57 73° SSW 11:58:28 10° ESE daylight
22 Oct - 14:15:09 10° WSW 14:18:33 20° SSW 14:22:47 10° SSE daylight
23 Oct - 03:16:53 10° S 03:23:08 13° SSE 03:28:16 10° SE visible
23 Oct - 05:39:06 10° SW 05:51:45 36° SSE 05:58:54 10° E visible
23 Oct - 08:08:30 10° WSW 08:18:07 74° SSE 08:23:30 10° E daylight
23 Oct - 10:37:30 10° W 10:43:19 88° N 10:47:43 10° E daylight
23 Oct - 13:03:51 10° W 13:07:51 33° SSW 13:12:20 10° SE daylight
24 Oct - 04:26:21 10° SSW 04:39:27 27° SSE 04:47:34 10° E visible
24 Oct - 06:54:45 10° SW 07:06:51 59° SSE 07:13:12 10° E visible
24 Oct - 09:24:57 10° W 09:32:31 86° N 09:37:15 10° E daylight
24 Oct - 11:52:34 10° W 11:57:20 56° SSW 12:01:43 10° ESE daylight
24 Oct - 14:19:56 10° SW 14:21:54 12° SSW 14:24:05 10° S daylight
25 Oct - 03:14:48 10° S 03:26:37 19° SSE 03:34:55 10° ESE visible
25 Oct - 05:40:52 10° SW 05:55:07 46° SSE 06:02:41 10° E visible
25 Oct - 08:11:32 10° WSW 08:21:30 85° SSE 08:26:58 10° E daylight
25 Oct - 10:40:48 10° W 10:46:45 83° S 10:51:09 10° ESE daylight
25 Oct - 13:07:39 10° W 13:11:08 22° SSW 13:14:54 10° SSE daylight
